TimeEST,TemperatureF,Dew PointF,Humidity,Sea Level PressureIn,VisibilityMPH,Wind Direction,Wind SpeedMPH,Gust SpeedMPH,PrecipitationIn,Events,Conditions,WindDirDegrees,DateUTC
12:53 AM,44.1,42.1,93,30.21,10.0,West,3.5,-,0.01,,Overcast,260,2012-12-05 05:53:00
1:53 AM,43.0,42.1,97,30.22,10.0,West,3.5,-,N/A,,Clear,260,2012-12-05 06:53:00
2:53 AM,42.1,39.9,92,30.24,10.0,SSW,4.6,-,N/A,,Clear,210,2012-12-05 07:53:00
3:53 AM,42.1,41.0,96,30.25,10.0,WSW,4.6,-,N/A,,Clear,240,2012-12-05 08:53:00
4:53 AM,42.1,39.9,92,30.25,10.0,WSW,3.5,-,N/A,,Clear,240,2012-12-05 09:53:00
5:53 AM,41.0,39.0,93,30.27,10.0,WSW,3.5,-,N/A,,Clear,250,2012-12-05 10:53:00
6:53 AM,39.9,37.9,93,30.28,10.0,Calm,Calm,-,N/A,,Clear,0,2012-12-05 11:53:00
7:53 AM,37.0,36.0,96,30.30,10.0,WSW,3.5,-,N/A,,Clear,250,2012-12-05 12:53:00
9:53 AM,43.0,37.9,82,30.34,10.0,WNW,5.8,-,N/A,,Clear,300,2012-12-05 14:53:00
10:53 AM,44.1,36.0,73,30.35,10.0,WNW,5.8,-,N/A,,Scattered Clouds,300,2012-12-05 15:53:00
11:53 AM,46.9,36.0,66,30.34,10.0,NW,6.9,-,N/A,,Partly Cloudy,320,2012-12-05 16:53:00
12:53 PM,46.9,34.0,61,30.32,10.0,NW,9.2,-,N/A,,Clear,310,2012-12-05 17:53:00
1:53 PM,48.9,28.9,46,30.32,10.0,NNW,9.2,-,N/A,,Clear,330,2012-12-05 18:53:00
2:53 PM,48.0,30.0,50,30.32,10.0,North,10.4,-,N/A,,Clear,350,2012-12-05 19:53:00
3:53 PM,46.9,30.0,52,30.33,10.0,Variable,5.8,-,N/A,,Clear,0,2012-12-05 20:53:00
4:53 PM,43.0,28.9,58,30.35,10.0,NNW,6.9,-,N/A,,Clear,330,2012-12-05 21:53:00
5:53 PM,39.9,28.0,63,30.36,10.0,North,4.6,-,N/A,,Clear,350,2012-12-05 22:53:00
7:53 PM,35.1,26.1,70,30.38,10.0,NNE,8.1,-,N/A,,Clear,30,2012-12-06 00:53:00
8:53 PM,33.1,24.1,70,30.38,10.0,NE,6.9,-,N/A,,Clear,50,2012-12-06 01:53:00
9:53 PM,32.0,23.0,69,30.37,10.0,NNE,9.2,-,N/A,,Clear,30,2012-12-06 02:53:00
10:53 PM,30.9,23.0,72,30.37,10.0,NNE,4.6,-,N/A,,Clear,30,2012-12-06 03:53:00
11:53 PM,30.0,23.0,75,30.38,10.0,North,4.6,-,N/A,,Clear,10,2012-12-06 04:53:00